COSMOS 1275 DEB, 42164

Orbit data source: Space-Track

COSMOS 1275 DEB, 42164 is space debris in LEO originally from a launch on Thu, 04 Jun 1981 UTC launched from the Plesetsk Missile And Space Complex (PKMTR). Debris objects in space refer to the collection of defunct objects orbiting the Earth. Examples of debris include non-operational satellites, rocket bodies, and fragments generated from explosions, collisions, or faulty payload assembly.

Loading next visibility...
Identifier
42164, 1981-053SC
Orbit
LEO
Last TLE update
2 days ago
Origin
Manufacturer
Unknown
Mission
Spacecraft
Bus & Motor
Unknown
Mass
Unknown
Launch date (UTC)
1981-06-04 (44 years ago)
Launch vehicle
Unknown
Launch site
Plesetsk Missile And Space Complex (PKMTR)
Object type
Payload
Rocket body
Debris
Shape & HBR
Unknown
Radar Cross Section
Small (<0.1 m²)

Expand to show TLE details & history

TLE from 2 days ago
0 COSMOS 1275 DEB
1 42164U 81053SC  25186.95159858  .00005975  00000-0  14770-2 0  9993
2 42164  82.9205 272.1262 0021833  45.4399 314.8577 14.51787100605200
Epoch: 2025-07-05T22:50Z
TLE epoch observation values (Epoch: 2025-07-05T22:50:18.117Z)
Latitude
-0.00006°
Longitude
5.36843°
Altitude
711.908 km
Speed
7.505 km/s
True Right ascension
18h 08m 30s
True Declination
0° 00' 00"
Sunlit
Object was in full shadow at epoch
Visualization orbit readout
Latitude
3.65433°
Longitude
-177.08813°
Altitude
733.889 km
Speed
7.482 km/s
Apparent Right ascension
06h 47m 28s
Apparent Declination
-17° 19' 54"
Sunlit
Object is in daylight
Visualization observer readout
Local Sidereal Time
19:58:47
Azimuth
39.494° NE
Elevation
-62.642°
Doppler factor
1
Orbital elements
Apogee altitude
732.352 km
Perigee altitude
701.371 km
Semi-major axis
7,094.999 km
Eccentricity
0.00218
Inclination
82.9205°
RAAN
272.1262°
Arg. of periapsis
45.4399°
True anomaly
Unknown
Mean anomaly
314.8577°
Eccentric anomaly
Unknown
Mean motion
3.63174 °/min
Orbital period
99.13 mins
BSTAR
0.001477
Loading maneuver chart data...
Loading SW <> Apogee altitude chart data...
Loading historical data...
Loading historical data...
Loading historical data...
Loading historical data...
Loading historical data...
Loading historical data...
Loading historical data...

COSMOS 1275 DEB Visibility forecast

Observer location: undefined°, undefined°

Span
Click to sort rows by Start time (UTC) header in descending order
Start Az.
Max El. time (UTC)
Max El. Az.
Max El.
End time (UTC)
End Az.
8 mins2025-07-08 17:35:09.709Z345.878° N2025-07-08 17:38:09.709Z304.069° NW42.443°2025-07-08 17:43:09.709Z182.881° SSW
7 mins2025-07-09 06:22:09.709Z200.598° SSW2025-07-09 06:25:09.709Z270.534° WNW42.311°2025-07-09 06:29:09.709Z359.07° N
|